Regional Weather Roundup
Issued by NWS

Home | Current Version | Previous Version | Text Only | Print | Product List | Glossary On
Versions: 1 2 3 4 5 6 7 8 9 10 11 12 13 14 15 16 17 18 19 20 21 22 23 24 25 26 27 28 29 30 31 32 33 34 35 36 37 38 39 40 41 42 43 44 45 46 47 48 49 50
000
ASUS44 KJAN 020410
RWRMS

MISSISSIPPI HOURLY WEATHER ROUNDUP
NATIONAL WEATHER SERVICE JACKSON MS
1100 PM CDT WED OCT 01 2014

NOTE: "FAIR: INDICATES FEW OR NO CLOUDS BELOW 12,000 FEET WITH NO
SIGNIFICANT WEATHER AND/OR OBSTRUCTIONS TO VISIBILITY.

MSZ001>002-007>008-010>013-018>021-025>028-034>036-020500-
NORTHWEST MISSISSIPPI

CITY           SKY/WX    TMP DP  RH WIND       PRES   REMARKS
CLARKSDALE     FAIR      77  66  69 SE8       29.91S
CLEVELAND      MOCLDY    78  68  70 SE8       29.90S
GREENWOOD      CLEAR     72  65  78 S3        29.92S
GREENVILLE     CLEAR     79  65  62 SE9       29.90R
GRENADA        FAIR      70  64  83 CALM      29.93S
OLIVE BRANCH   PTCLDY    73  64  73 SE7       29.92S
OXFORD         FAIR      72  61  68 SE6       29.95S
TUNICA         CLEAR     72  64  78 SE6       29.91S
$$

MSZ003>006-009-014>017-022>024-029>033-037>039-020500-
NORTHEAST MISSISSIPPI

CITY           SKY/WX    TMP DP  RH WIND       PRES   REMARKS
COLUMBUS AFB   CLEAR     69  62  79 SE6       29.95S
CORINTH          N/A     70  63  78 S6        29.94F
GOLDN TRIANGLE CLEAR     73  59  60 SE8       29.95S
STARKVILLE     FAIR      72  61  68 CALM      29.96R
TUPELO         CLEAR     70  62  76 CALM      29.94F
$$

MSZ040-058-020500-
CENTRAL MISSISSIPPI

CITY           SKY/WX    TMP DP  RH WIND       PRES   REMARKS
JACKSON INTL   CLEAR     74  69  85 SE7       29.94S
JACKSON HAWKNS CLEAR     77  70  79 S9        29.94S
MERIDIAN KEY   CLEAR     70  64  81 S7        29.97R
MERIDIAN NAS   PTCLDY    72  64  76 SE5       29.97R
RAYMOND        FAIR      75  70  83 SE3       29.93S
VICKSBURG      CLEAR     78  71  79 S8        29.91S
$$

MSZ059>079-020500-
SOUTH MISSISSIPPI

CITY           SKY/WX    TMP DP  RH WIND       PRES   REMARKS
BROOKHAVEN     FAIR      75  73  94 SE6       29.97S
COLUMBIA       FAIR      73  72  94 S6        29.95S
HATTIESBURG    CLEAR     75  72  90 S7        29.97S
MCCOMB         MOCLDY    75  72  90 SE9       29.95S
NATCHEZ        CLEAR     75  72  88 SE7       29.93S
PINE BELT      CLEAR     73  70  88 CALM      29.98S
$$

MSZ080>082-020500-
COASTAL MISSISSIPPI

CITY           SKY/WX    TMP DP  RH WIND       PRES   REMARKS
BILOXI         PTCLDY    79  75  87 SE6       29.96S
PASCAGOULA     CLEAR     70  70 100 CALM      29.97S
GULFPORT       CLEAR     79  74  84 SE10      29.95S
$$


USA.gov is the U.S. government's official web portal to all federal, state and local government web resources and services.